Location: Treviso
(45.6669°N, 12.2430°E)
Time: 15:22:55
(UTC+02:00)

ISS - Visible Passes

Search period start: 22 October 2020 00:00
Search period end: 31 October 2020 23:00
Orbit: 417 x 420 km, 51.6° (Epoch: 22 October)

Date Brightness Start Highest point End Pass type
(mag) Time Alt. Az. Time Alt. Az. Time Alt. Az.
22 Oct -0.5 06:05:43 10° SE 06:06:20 10° SE 06:06:58 10° ESE visible
23 Oct -2.5 06:51:41 10° SW 06:54:52 41° SE 06:58:04 10° ENE visible
24 Oct -1.8 06:04:39 11° SSW 06:07:14 26° SE 06:10:07 10° E visible
25 Oct -1.2 04:19:30 17° SE 04:19:40 17° SE 04:21:54 10° E visible
25 Oct -3.8 05:52:43 10° WSW 05:56:05 82° NNW 05:59:27 10° ENE visible
26 Oct -3.5 05:07:10 36° SW 05:08:21 66° SSE 05:11:42 10° ENE visible
27 Oct -1.9 04:21:43 30° E 04:21:43 30° E 04:23:51 10° ENE visible
27 Oct -3.2 05:54:41 13° W 05:57:27 43° NNW 06:00:42 10° NE visible
28 Oct -3.6 05:09:07 50° WNW 05:09:38 58° NNW 05:12:58 10° ENE visible
29 Oct -1.8 04:23:28 28° ENE 04:23:28 28° ENE 04:25:13 10° ENE visible
29 Oct -2.6 05:56:26 13° WNW 05:58:57 30° N 06:02:00 10° NE visible
30 Oct -2.9 05:10:43 34° NNW 05:11:04 35° NNW 05:14:13 10° NE visible
31 Oct -1.5 04:24:58 22° NE 04:24:58 22° NE 04:26:27 10° NE visible
31 Oct -2.4 05:57:55 12° WNW 06:00:31 28° N 06:03:29 10° ENE visible
